Temperature
18 18 17 17 17 17 17 16 16 16 16 16 16 16 16 15 15 15 15 15 15 15 15 15 14 14 14 14 14 14 14 14 14 14 14 14 14 14 14 14 14 14 14
17 17 17 17 17 17 17 17 16 16 16 16 16 16 15 15 15 15 15 15 15 15 15 14 14 14 14 14 14 14 14 14 14 14 14 14 14 14 13 13 13 13 13
17 17 17 17 17 17 17 16 16 16 15 15 15 15 15 15 15 15 15 15 14 14 14 14 14 14 14 14 14 14 14 14 14 14 14 14 13 13 13 13 13 13 13
17 17 17 17 17 17 16 16 15 15 15 15 15 15 15 15 15 15 14 14 14 14 14 14 14 14 14 14 14 14 14 14 13 13 13 13 13 13 13 13 13 13 13
17 17 16 16 16 16 16 15 15 15 15 15 15 15 15 14 14 14 14 14 14 14 14 14 14 14 14 14 14 14 13 13 13 13 13 13 13 13 13 13 13 13 13
17 16 16 16 16 16 15 15 15 15 15 15 15 15 14 14 14 14 14 14 14 14 14 14 14 14 14 13 13 13 13 13 13 13 13 13 13 12 12 12 12 12 12
16 16 16 16 15 15 15 15 15 15 15 15 14 14 14 14 14 14 14 14 14 14 14 14 14 14 13 13 13 13 13 13 13 12 12 12 12 12 12 12 12 12 12
15 15 15 15 15 15 15 15 15 14 14 14 14 14 14 14 14 14 14 14 14 14 14 13 13 13 13 13 13 13 13 12 12 12 12 12 12 12 12 12 11 11 11
15 15 15 15 15 15 14 14 14 14 14 14 14 14 14 14 14 14 14 14 14 14 13 13 13 13 13 12 12 12 12 12 12 12 12 12 11 11 11 11 11 11 11
15 15 15 14 14 14 14 14 14 14 14 14 14 14 14 14 14 14 14 13 13 13 13 13 13 13 12 12 12 12 12 12 12 12 11 11 11 11 11 11 11 11 11
15 14 14 14 14 14 14 14 14 14 13 13 13 13 13 13 13 13 13 13 13 13 13 13 12 12 12 12 12 12 12 12 11 11 11 11 11 11 11 11 11 11 11
14 14 14 14 14 14 13 13 13 13 13 13 13 13 13 13 13 13 13 13 13 13 12 12 12 12 12 12 12 11 11 11 11 11 11 11 11 11 11 11 10 10 10
13 13 13 13 13 13 13 12 12 12 12 12 12 12 12 12 12 12 12 12 12 12 12 12 11 11 11 11 11 11 11 11 11 11 11 11 11 11 10 10 10 10 10
13 13 13 13 12 12 12 12 12 12 12 12 12 12 12 12 12 12 12 11 11 11 11 11 11 11 11 11 11 11 11 11 11 10 10 10 10 10 10 10 10 10 10
12 12 12 12 12 12 12 12 12 12 12 12 11 11 11 11 12 11 11 11 11 11 11 11 11 11 11 11 11 11 10 10 10 10 10 10 10 10 10 10 9 9 9
12 12 12 12 12 12 12 12 11 11 11 11 11 11 11 11 11 11 11 11 11 11 10 10 11 10 10 10 10 10 10 10 10 10 10 10 10 10 9 9 9 9 9
12 12 12 12 12 12 11 11 11 11 11 11 11 11 11 11 11 11 10 10 10 10 10 10 10 10 10 10 10 10 10 10 10 10 9 9 9 9 9 9 9 9 9
12 11 11 11 11 11 11 11 11 11 11 11 11 11 10 10 10 10 10 10 10 10 10 10 10 10 10 10 10 10 10 9 9 9 9 9 9 9 9 8 8 8 8
11 11 11 11 11 11 10 10 10 10 10 10 10 10 10 10 10 10 10 10 10 9 9 10 10 10 10 9 9 9 9 9 9 9 9 9 9 9 8 8 8 8 8
11 11 11 11 10 10 10 10 10 10 10 10 10 10 10 10 10 9 9 9 9 9 9 9 9 9 9 9 9 9 9 9 9 9 9 8 8 8 8 8 8 7 7
11 11 10 10 10 10 10 10 10 10 9 9 9 9 9 9 9 9 9 9 9 9 9 9 9 9 9 8 8 8 8 8 8 8 8 8 8 8 8 7 7 7 7
10 10 10 10 10 9 9 9 9 9 9 9 9 9 8 8 8 8 8 8 8 8 8 8 8 8 8 8 8 8 8 8 8 8 8 8 7 7 7 7 7 7 7
10 10 10 9 9 9 9 9 9 9 9 9 8 8 8 8 8 8 8 8 8 8 8 8 8 8 7 7 7 7 7 7 7 7 7 7 7 7 7 7 6 6 6
9 9 9 9 9 9 9 9 8 8 8 8 8 8 8 8 8 8 8 8 8 7 7 7 7 7 7 7 7 7 7 7 7 7 7 6 6 6 6 6 6 6 6
9 9 9 9 9 9 8 8 8 8 8 8 8 8 8 8 7 7 7 7 7 7 7 7 7 7 7 7 7 6 6 6 6 6 6 6 6 6 6 6 6 5 5
9 9 9 8 8 8 8 8 8 8 8 8 8 7 7 7 7 7 7 7 7 7 7 7 6 6 6 6 6 6 6 6 6 6 6 6 6 6 5 5 5 5 5
Wind_Speed
5 5 5 4 4 4 4 3 3 3 4 5 5 4 4 3 3 3 2 2 2 2 2 3 2 2 2 2 2 2 2 3 2 2 1 1 1 2 2 2 2 3 3
5 4 4 4 4 4 4 3 3 3 4 5 4 4 4 3 3 4 3 3 3 2 2 2 3 2 2 2 2 3 2 3 3 3 2 1 2 2 2 2 2 3 3
5 4 4 4 4 4 4 4 4 4 4 4 4 4 4 4 4 4 4 3 3 3 3 3 3 2 2 2 2 2 2 2 2 2 2 1 1 1 2 2 3 3 3
5 5 4 4 4 4 3 4 5 4 4 4 4 4 4 4 4 3 3 3 2 2 2 2 3 3 4 4 3 3 3 2 2 2 1 1 1 1 1 2 2 3 3
5 5 5 4 3 3 3 4 4 4 4 3 3 3 3 3 3 4 3 3 2 1 1 1 2 3 3 4 3 3 3 2 2 2 2 2 2 1 2 1 2 3 3
4 4 4 3 3 3 3 4 4 4 3 3 3 3 3 3 4 5 5 4 3 2 2 2 1 1 2 2 3 4 4 4 4 3 3 3 3 3 2 2 2 2 2
3 3 2 3 3 3 3 3 3 3 3 3 3 3 3 3 5 6 6 5 4 3 3 2 2 2 2 1 2 1 2 3 4 4 4 5 4 4 3 3 3 3 4
2 2 2 2 3 3 3 3 3 2 2 2 3 3 3 3 5 5 5 4 4 4 4 4 3 2 2 2 2 2 3 3 4 4 4 5 5 4 4 4 4 3 3
2 2 2 3 3 3 3 3 2 3 2 2 2 3 3 3 4 5 5 3 3 3 3 3 3 3 3 3 3 3 3 4 3 4 5 5 5 5 4 2 2 2 3
3 3 3 3 3 3 3 2 2 3 3 2 2 2 2 2 3 4 6 3 3 2 2 2 3 3 4 4 4 4 5 5 3 3 3 3 4 4 4 4 4 3 2
3 2 2 2 3 3 3 2 2 3 3 2 2 1 1 1 2 3 5 4 4 3 3 3 3 4 4 5 5 5 7 5 3 3 3 3 2 2 2 3 4 4 4
2 2 2 2 2 2 3 2 2 3 3 2 2 1 0 1 1 3 4 5 5 4 3 3 3 4 4 4 5 5 5 4 2 2 2 3 3 3 3 3 4 5 5
2 2 1 2 1 2 3 3 2 2 3 2 2 2 1 1 1 3 4 4 4 3 3 3 3 4 3 3 4 5 4 3 2 3 4 4 4 3 3 2 3 3 4
3 2 2 2 2 1 2 2 2 2 2 2 2 2 2 2 2 2 2 2 3 2 2 2 2 2 2 2 2 2 2 3 3 4 4 3 2 2 2 2 2 2 2
3 3 2 2 2 2 2 2 3 3 3 4 4 4 3 4 5 5 4 3 3 2 1 1 1 1 1 1 1 1 1 1 2 3 3 3 3 3 3 2 2 2 2
3 2 2 2 2 2 2 0 1 2 3 4 4 4 4 5 5 6 5 5 5 4 2 2 3 3 3 3 2 2 2 2 3 3 3 3 3 3 3 2 2 2 3
4 3 2 2 2 2 2 2 1 2 1 2 3 4 5 5 5 5 5 4 3 4 2 3 3 3 4 4 4 3 3 2 2 2 3 3 3 3 2 2 2 2 3
3 3 3 3 3 2 3 2 2 2 2 2 2 4 5 5 4 4 4 3 1 2 3 3 4 4 4 4 3 3 3 2 2 2 3 3 3 2 2 2 2 2 2
3 3 3 2 2 2 2 2 2 2 2 2 2 2 2 2 2 2 4 3 3 3 3 3 3 3 3 3 3 3 3 2 2 3 3 3 3 2 2 3 2 2 2
3 4 3 3 2 2 2 2 2 2 2 1 1 2 1 0 0 0 2 2 3 3 3 3 3 3 3 3 3 3 2 2 2 2 2 2 2 2 3 3 2 2 2
2 3 4 3 2 2 2 2 2 2 2 2 2 2 2 2 2 2 1 2 3 3 3 3 3 3 3 2 3 3 3 2 2 2 2 2 2 2 2 2 2 2 2
3 3 3 3 2 2 2 2 2 2 2 2 2 2 2 1 1 1 1 2 2 2 2 2 2 2 2 2 2 2 2 1 1 1 1 1 1 1 1 1 2 2 2
2 2 2 2 2 3 2 2 2 2 2 2 2 1 1 1 2 2 2 2 2 1 1 2 2 2 2 2 2 2 2 2 1 1 1 1 1 1 1 1 1 1 1
2 2 2 2 2 2 2 2 2 2 2 2 2 2 2 2 2 2 3 2 2 1 1 1 2 2 2 1 1 1 1 1 0 1 1 1 1 1 1 1 1 1 1
2 2 2 2 2 2 2 2 2 2 2 2 2 2 2 2 2 2 2 2 2 1 1 1 1 2 2 2 1 1 1 1 0 0 1 1 2 1 1 1 1 1 1
2 2 2 2 2 2 2 2 2 2 2 3 3 3 2 2 2 2 2 2 1 1 1 1 1 1 1 1 1 0 1 0 0 0 1 1 2 2 2 1 1 1 1
Wind_Direction
187 190 187 188 182 179 184 196 194 181 179 180 184 182 179 180 175 163 166 164 168 180 186 194 218 203 190 190 184 180 187 179 215 273 272 297 290 308 322 315 307 300 296
184 177 187 187 180 179 189 195 194 189 185 185 182 179 182 182 176 175 182 179 179 195 213 209 226 211 203 206 191 193 197 194 203 246 281 292 286 295 304 311 318 314 298
176 174 182 188 191 196 195 189 190 187 185 186 177 176 185 187 185 183 178 179 186 202 210 211 222 197 216 223 207 209 210 203 206 219 262 280 290 308 331 334 327 317 310
170 179 194 202 199 198 187 179 186 188 184 182 178 176 186 190 187 180 174 177 183 210 220 217 218 209 216 218 215 215 207 197 202 212 253 284 291 308 317 321 323 325 319
170 184 202 200 183 171 167 173 178 187 189 180 172 171 175 183 188 174 175 173 172 198 239 239 227 214 211 212 215 207 195 200 212 226 253 271 278 289 274 273 291 306 306
171 188 188 168 162 164 168 169 169 181 180 167 169 172 174 198 180 168 169 173 174 187 221 252 252 237 235 221 219 209 202 208 220 227 241 252 259 256 258 255 270 294 291
163 166 161 157 164 174 173 160 168 176 170 168 173 170 177 193 180 173 177 179 184 199 217 229 246 247 221 229 228 235 240 228 212 215 231 243 247 244 237 248 251 256 259
137 139 152 156 160 151 146 161 172 168 168 180 183 181 183 204 187 181 180 181 192 211 218 216 220 246 237 211 215 245 257 256 235 226 235 249 252 244 231 237 246 258 272
150 161 183 174 169 157 160 175 176 169 176 183 179 178 185 211 195 186 174 182 195 218 229 220 215 232 242 198 198 232 257 267 258 241 242 247 254 245 220 218 233 243 275
186 185 184 175 170 167 174 169 162 163 173 169 165 171 185 217 214 189 176 182 196 218 239 242 233 235 240 212 211 225 243 257 262 271 270 272 266 252 216 210 213 226 256
193 171 168 173 169 166 164 150 147 153 151 149 143 140 170 248 242 204 185 191 201 209 229 249 259 253 243 230 222 228 237 243 248 250 261 276 284 271 248 229 219 217 231
164 159 165 164 159 146 138 137 149 152 149 152 154 157 276 277 251 225 203 201 198 202 225 243 253 256 243 237 232 240 243 236 234 243 260 272 275 275 272 258 242 235 236
145 152 159 149 135 139 147 152 146 147 155 173 184 208 263 275 255 229 212 210 203 207 229 232 248 261 256 248 242 241 235 217 217 234 250 256 257 262 270 273 272 263 266
154 164 167 157 154 147 154 162 164 176 175 189 208 225 253 273 273 263 246 225 216 217 243 262 271 273 260 260 262 248 224 217 221 235 247 255 253 252 255 254 263 280 287
168 176 179 182 176 172 168 185 192 211 206 201 216 218 221 244 250 238 227 228 220 222 223 279 282 278 277 280 279 274 242 226 234 247 249 254 250 247 254 247 247 262 262
179 190 194 188 184 178 171 238 328 240 241 226 219 216 233 234 232 223 221 222 208 184 168 226 242 240 243 249 251 255 249 247 245 245 248 248 250 249 252 246 237 248 262
189 196 192 192 192 192 189 195 249 337 339 265 251 241 237 233 226 216 208 200 193 159 179 230 242 245 245 241 237 237 244 248 240 239 249 258 257 251 250 256 258 258 265
192 197 190 199 202 203 204 204 202 221 278 306 295 260 251 246 234 217 189 148 169 187 221 236 247 251 251 247 244 243 248 247 236 237 242 245 241 239 245 261 259 259 267
194 198 192 190 189 193 192 187 199 216 238 267 307 318 288 254 228 201 167 184 217 229 235 243 248 250 253 252 251 246 238 240 240 234 234 231 231 230 246 256 257 261 260
200 198 181 171 168 168 172 181 211 226 241 256 269 285 316 96 88 203 199 220 229 235 238 242 248 249 249 249 251 249 244 243 238 230 229 231 234 231 237 244 246 258 268
188 183 174 168 180 185 188 194 209 222 240 256 266 267 218 207 227 234 227 228 236 241 242 242 245 246 243 245 248 244 240 248 248 239 240 248 243 234 232 231 238 244 250
165 167 174 180 191 199 200 200 201 209 230 249 269 269 216 219 232 234 235 241 244 242 238 236 252 254 242 231 232 236 241 246 245 236 241 250 249 246 238 233 243 251 252
162 164 171 181 191 196 201 214 213 223 241 255 264 258 242 242 241 243 247 250 241 236 230 222 242 266 266 253 245 230 229 237 234 212 201 214 214 230 240 231 245 261 251
169 174 178 189 200 204 207 213 214 224 237 251 263 260 249 242 243 243 243 244 238 232 224 218 230 248 254 261 267 258 254 256 234 204 196 196 200 209 213 226 263 255 239
184 190 197 202 205 204 207 213 222 231 240 250 258 259 257 249 248 250 243 233 221 235 245 248 256 250 240 242 263 309 358 31 19 263 210 196 191 199 209 223 242 248 243
201 206 210 207 209 212 213 220 228 235 244 253 255 255 255 254 248 243 239 235 235 246 266 270 263 236 220 221 222 137 105 69 357 199 183 174 176 189 202 213 232 242 247
Height
1502 1504 1505 1507 1508 1510 1511 1513 1515 1516 1517 1519 1520 1521 1522 1523 1524 1525 1526 1526 1527 1528 1529 1530 1530 1531 1532 1532 1533 1533 1533 1533 1532 1532 1533 1532 1532 1532 1531 1531 1530 1530 1529
1500 1502 1503 1505 1506 1507 1509 1510 1513 1515 1516 1517 1518 1519 1520 1521 1522 1523 1524 1525 1526 1526 1527 1528 1528 1529 1530 1530 1531 1531 1531 1532 1531 1530 1530 1530 1530 1530 1529 1529 1528 1527 1527
1498 1500 1501 1502 1504 1505 1507 1509 1511 1512 1513 1514 1515 1516 1518 1519 1520 1521 1522 1523 1524 1525 1526 1526 1527 1527 1528 1528 1528 1529 1529 1530 1529 1529 1528 1528 1528 1528 1527 1526 1526 1525 1524
1496 1498 1499 1500 1502 1503 1505 1506 1508 1510 1511 1511 1513 1514 1515 1517 1518 1519 1520 1521 1522 1523 1524 1524 1525 1525 1526 1526 1526 1526 1527 1527 1527 1527 1526 1526 1526 1525 1525 1524 1523 1523 1522
1493 1495 1497 1499 1500 1502 1503 1505 1506 1508 1509 1510 1510 1511 1513 1514 1515 1517 1518 1519 1520 1521 1522 1522 1523 1523 1523 1523 1524 1524 1524 1524 1524 1524 1524 1523 1523 1522 1522 1521 1520 1520 1519
1492 1494 1496 1497 1498 1500 1501 1503 1504 1506 1507 1507 1508 1509 1510 1512 1513 1514 1516 1517 1518 1519 1519 1520 1520 1521 1521 1521 1521 1521 1521 1521 1521 1521 1521 1520 1520 1520 1519 1519 1518 1517 1516
1490 1492 1493 1495 1496 1497 1499 1500 1502 1503 1504 1505 1506 1507 1508 1509 1511 1512 1513 1514 1515 1516 1517 1517 1518 1518 1518 1518 1518 1518 1518 1518 1518 1518 1518 1517 1517 1517 1516 1515 1515 1514 1513
1489 1490 1492 1493 1494 1495 1496 1498 1499 1501 1502 1503 1504 1505 1506 1507 1509 1510 1511 1512 1512 1513 1514 1514 1515 1514 1515 1515 1515 1515 1515 1515 1515 1515 1515 1514 1514 1513 1513 1513 1512 1511 1511
1487 1489 1490 1491 1492 1493 1494 1496 1497 1498 1499 1500 1501 1502 1503 1505 1506 1507 1508 1509 1509 1510 1511 1511 1511 1511 1512 1512 1512 1512 1512 1513 1512 1512 1512 1512 1511 1511 1510 1509 1509 1508 1507
1486 1487 1489 1489 1490 1491 1492 1494 1495 1496 1497 1498 1498 1500 1501 1502 1503 1504 1505 1506 1506 1506 1507 1508 1508 1508 1508 1508 1509 1509 1508 1509 1509 1509 1509 1509 1508 1508 1507 1506 1506 1505 1504
1485 1486 1487 1488 1488 1489 1490 1491 1492 1493 1494 1495 1496 1497 1498 1499 1500 1501 1502 1502 1502 1502 1503 1503 1504 1505 1505 1505 1505 1505 1505 1506 1505 1505 1505 1505 1505 1505 1504 1503 1503 1502 1501
1483 1484 1485 1486 1486 1487 1488 1489 1490 1490 1491 1492 1493 1494 1495 1496 1497 1497 1498 1498 1499 1499 1499 1499 1499 1500 1501 1501 1501 1501 1502 1502 1502 1502 1501 1501 1501 1501 1500 1500 1499 1499 1498
1481 1482 1482 1483 1484 1485 1486 1486 1487 1487 1488 1489 1490 1491 1492 1493 1493 1494 1494 1495 1495 1495 1495 1495 1496 1496 1497 1497 1498 1498 1498 1498 1497 1497 1497 1497 1497 1497 1497 1496 1496 1495 1494
1478 1479 1480 1481 1482 1483 1484 1484 1485 1485 1485 1486 1487 1487 1488 1489 1489 1490 1490 1491 1491 1491 1492 1492 1493 1493 1493 1493 1493 1493 1493 1493 1493 1493 1493 1493 1493 1493 1493 1492 1491 1490 1489
1476 1477 1478 1478 1479 1480 1481 1482 1482 1483 1484 1484 1485 1485 1485 1485 1486 1487 1487 1487 1487 1488 1488 1489 1489 1490 1490 1490 1490 1490 1490 1490 1490 1489 1489 1489 1489 1489 1489 1488 1487 1486 1485
1474 1474 1475 1476 1476 1477 1479 1480 1480 1481 1481 1482 1482 1483 1483 1483 1483 1484 1484 1484 1484 1485 1485 1485 1486 1486 1486 1486 1486 1486 1486 1486 1485 1485 1485 1485 1485 1485 1484 1484 1483 1482 1481
1472 1473 1473 1474 1474 1475 1476 1477 1477 1478 1478 1479 1479 1479 1480 1480 1480 1480 1480 1480 1481 1481 1481 1481 1482 1482 1482 1482 1482 1482 1482 1482 1482 1482 1482 1481 1481 1481 1480 1480 1479 1479 1478
1471 1471 1471 1472 1472 1473 1474 1474 1474 1475 1475 1475 1476 1476 1476 1476 1476 1476 1476 1476 1476 1477 1477 1477 1478 1478 1478 1478 1478 1478 1478 1478 1478 1478 1478 1478 1477 1477 1477 1476 1476 1475 1474
1468 1469 1469 1469 1470 1470 1471 1471 1472 1473 1473 1472 1473 1473 1473 1473 1473 1473 1472 1472 1472 1472 1473 1474 1474 1475 1475 1475 1475 1475 1474 1474 1474 1474 1474 1474 1474 1473 1473 1473 1472 1472 1471
1466 1466 1467 1467 1467 1468 1468 1469 1470 1470 1470 1470 1469 1470 1470 1469 1469 1469 1469 1469 1469 1469 1470 1470 1471 1471 1471 1471 1471 1471 1471 1471 1471 1470 1470 1470 1470 1470 1470 1469 1469 1469 1468
1463 1464 1465 1465 1465 1465 1466 1466 1467 1467 1467 1467 1467 1467 1467 1466 1466 1466 1465 1465 1466 1466 1467 1467 1467 1467 1468 1468 1468 1468 1467 1467 1467 1467 1466 1466 1466 1466 1466 1466 1466 1466 1466
1461 1462 1462 1462 1463 1463 1463 1463 1464 1464 1464 1464 1464 1464 1463 1463 1463 1462 1462 1463 1463 1463 1464 1464 1464 1465 1465 1465 1465 1465 1464 1464 1464 1464 1463 1463 1463 1463 1463 1463 1463 1463 1462
1459 1459 1460 1460 1460 1460 1461 1461 1461 1461 1461 1461 1461 1460 1460 1460 1460 1460 1460 1460 1461 1461 1461 1461 1461 1462 1462 1462 1462 1462 1461 1461 1461 1461 1460 1460 1459 1460 1460 1460 1460 1460 1460
1457 1457 1457 1458 1458 1458 1458 1459 1459 1459 1460 1460 1459 1458 1458 1457 1457 1457 1457 1457 1458 1458 1458 1458 1459 1459 1459 1459 1459 1459 1459 1459 1458 1458 1457 1457 1456 1456 1456 1457 1457 1457 1457
1455 1455 1455 1455 1456 1456 1456 1457 1457 1457 1457 1457 1457 1456 1456 1455 1455 1454 1455 1455 1455 1455 1455 1456 1456 1456 1456 1456 1456 1456 1456 1456 1456 1455 1455 1454 1454 1454 1454 1454 1454 1454 1455
1453 1453 1453 1453 1453 1454 1454 1454 1455 1455 1455 1455 1454 1454 1453 1452 1452 1452 1452 1452 1452 1452 1452 1453 1453 1453 1453 1453 1453 1453 1453 1453 1453 1453 1452 1451 1451 1452 1452 1452 1452 1452 1452